COSMOS 2251 DEB, 38197

Orbit data source: Space-Track

COSMOS 2251 DEB, 38197 is space debris in LEO originally from a launch on Wed, 16 Jun 1993 UTC launched from the Plesetsk Missile And Space Complex (PKMTR). The debris from Iridium 33, an American commercial communications satellite, has been tracked extensively since its accidental collision with the defunct Russian satellite Cosmos 2251 in 2009. This event, occurring at high speed in low Earth orbit (LEO), generated thousands of pieces of space debris, significantly increasing the risk of further collisions. The Iridium 33 debris cloud has impacted space traffic management and orbital debris mitigation strategies, making it a subject of ongoing study in space situational awareness.

Loading next visibility...
Identifier
38197, 1993-036BSM
Orbit
LEO
Country
Flag of CISCIS
Related business
Manufacturer
Unknown
Mission
Spacecraft
Bus & Motor
Unknown
Mass
Unknown
Launch date (UTC)
1993-06-16 (33 years ago)
Launch vehicle
Unknown
Launch site
Plesetsk Missile And Space Complex (PKMTR)
Object type
Payload
Rocket body
Debris
Shape & HBR
Unknown shape, 0.1 m
Radar Cross Section
Small (<0.1 m²)

Expand to show TLE details & history
Last TLE update: 2 days ago

TLE from 2 days ago
0 COSMOS 2251 DEB
1 38197U 93036BSM 26120.30190330  .00009735  00000-0  11648-2 0  9995
2 38197  73.9344  83.6284 0114882 284.3816  74.4629 14.79582254878010
Epoch: 2026-04-30T07:14Z
TLE epoch observation values (Epoch: 2026-04-30T07:14:44.445Z)
Latitude
-0.00007°
Longitude
116.69273°
Altitude
612.593 km
Speed
7.564 km/s
True Right ascension
05h 34m 30s
True Declination
0° 00' 00"
Sunlit
Object was in daylight at epoch
Visualization orbit readout
Latitude
Unknown
Longitude
Unknown
Altitude
Unknown
Speed
Unknown
Apparent Right ascension
Unknown
Apparent Declination
Unknown
Sunlit
N/A
Visualization observer readout
Local Sidereal Time
20:47:45
Azimuth
Unknown
Elevation
Unknown
Doppler factor
Unknown
Orbital elements
Apogee altitude
708.718 km
Perigee altitude
547.737 km
Semi-major axis
7,006.364 km
Eccentricity
0.01149
Inclination
73.9344°
RAAN
83.6284°
Arg. of periapsis
284.3816°
True anomaly
75.73604°
Mean anomaly
74.4629°
Eccentric anomaly
75.09899°
Mean motion
3.70087 °/min
Orbital period
97.27 mins
BSTAR
0.0011648
Loading maneuver chart data...
Computing Atmospheric mass density...
Loading historical data...
Loading historical data...
Loading historical data...
Loading historical data...
Loading historical data...
Loading historical data...
Loading historical data...

Documentation

Showing up to 5 results
|